DEEP3 KVPS-KLAL

Flight info

Callsign DEEP3
Flight time 0h 52m
Altitude 35000
Route PFINN ADDAX VPMNO VPFSY VPTCK VPKER
Aircraft F22/M-SDGHITUY/LB1

Departure

Time 2026-04-26 19:44
Airport Destin-Fort Walton Beach Airport (KVPS)

Arrival

Time 2026-04-26 20:36
Airport Lakeland Linder International Airport (KLAL)
Time Latitude Longitude Altitude Speed Heading
2026-04-26 19:32 30.47742 -86.53705 70 ft 0 kts 165°
2026-04-26 19:40 30.47739 -86.53704 76 ft 5 kts 165°
2026-04-26 19:40 30.47694 -86.53665 75 ft 9 kts 67°
2026-04-26 19:40 30.47714 -86.53595 74 ft 9 kts 72°
2026-04-26 19:40 30.47751 -86.53607 76 ft 7 kts 297°
2026-04-26 19:41 30.47796 -86.53701 76 ft 16 kts 298°
2026-04-26 19:41 30.47851 -86.53814 69 ft 16 kts 299°
2026-04-26 19:41 30.47904 -86.53923 74 ft 15 kts 298°
2026-04-26 19:41 30.47938 -86.53993 78 ft 15 kts 303°
2026-04-26 19:42 30.48005 -86.54129 78 ft 14 kts 298°
2026-04-26 19:42 30.48054 -86.54230 78 ft 14 kts 305°
2026-04-26 19:42 30.48134 -86.54254 82 ft 13 kts 43°
2026-04-26 19:42 30.48208 -86.54194 81 ft 13 kts 29°
2026-04-26 19:43 30.48287 -86.54146 80 ft 13 kts 34°
2026-04-26 19:43 30.48296 -86.54053 81 ft 13 kts 120°
2026-04-26 19:43 30.48005 -86.53475 76 ft 201 kts 120°
2026-04-26 19:43 30.46948 -86.51273 646 ft 439 kts 119°
2026-04-26 19:44 30.45307 -86.47659 3837 ft 574 kts 115°
2026-04-26 19:44 30.43685 -86.42941 3979 ft 625 kts 103°
2026-04-26 19:44 30.42947 -86.38309 3228 ft 548 kts 101°
2026-04-26 19:44 30.42169 -86.34306 3341 ft 471 kts 103°
2026-04-26 19:45 30.41445 -86.30947 4762 ft 388 kts 104°
2026-04-26 19:45 30.40699 -86.27999 6224 ft 387 kts 108°
2026-04-26 19:45 30.39740 -86.25028 7655 ft 399 kts 110°
2026-04-26 19:45 30.38728 -86.21980 9179 ft 410 kts 109°
2026-04-26 19:46 30.37746 -86.18876 10653 ft 421 kts 108°
2026-04-26 19:46 30.36746 -86.15641 12117 ft 431 kts 109°
2026-04-26 19:46 30.35705 -86.12330 13654 ft 442 kts 109°
2026-04-26 19:46 30.34639 -86.08981 15061 ft 427 kts 110°
2026-04-26 19:47 30.33637 -86.05830 16516 ft 436 kts 110°
2026-04-26 19:47 30.32908 -86.03529 17552 ft 481 kts 110°
2026-04-26 19:47 30.31234 -85.98251 19537 ft 570 kts 110°
2026-04-26 19:47 30.29817 -85.93788 21008 ft 596 kts 110°
2026-04-26 19:48 30.28382 -85.89274 22541 ft 593 kts 110°
2026-04-26 19:48 30.26961 -85.84805 24020 ft 591 kts 110°
2026-04-26 19:48 30.25535 -85.80331 25392 ft 594 kts 110°
2026-04-26 19:48 30.24118 -85.75892 26813 ft 596 kts 110°
2026-04-26 19:49 30.22694 -85.71380 28337 ft 598 kts 107°
2026-04-26 19:49 30.21494 -85.66767 29937 ft 599 kts 103°
2026-04-26 19:49 30.20752 -85.62042 31377 ft 593 kts 95°
2026-04-26 19:49 30.20212 -85.57365 32860 ft 590 kts 96°
2026-04-26 19:50 30.19569 -85.52663 34011 ft 590 kts 97°
2026-04-26 19:50 30.18915 -85.47948 34495 ft 592 kts 96°
2026-04-26 19:50 30.18288 -85.43242 34725 ft 592 kts 96°
2026-04-26 19:50 30.17666 -85.38598 34834 ft 591 kts 96°
2026-04-26 19:51 30.16387 -85.29197 34887 ft 591 kts 96°
2026-04-26 19:51 30.15105 -85.19794 34924 ft 591 kts 96°
2026-04-26 19:52 30.13826 -85.10469 34945 ft 591 kts 96°
2026-04-26 19:52 30.12530 -85.01066 34940 ft 592 kts 97°
2026-04-26 19:53 30.11222 -84.91657 34933 ft 592 kts 97°
2026-04-26 19:53 30.09920 -84.82312 34932 ft 592 kts 97°
2026-04-26 19:54 30.08600 -84.72902 34934 ft 592 kts 97°
2026-04-26 19:54 30.07284 -84.63568 34934 ft 591 kts 97°
2026-04-26 19:55 30.05953 -84.54176 34931 ft 592 kts 97°
2026-04-26 19:55 30.04622 -84.44842 34932 ft 592 kts 97°
2026-04-26 19:56 30.03277 -84.35450 34930 ft 591 kts 97°
2026-04-26 19:56 30.01928 -84.26074 34930 ft 592 kts 97°
2026-04-26 19:57 30.00577 -84.16745 34924 ft 592 kts 97°
2026-04-26 19:57 29.99214 -84.07375 34924 ft 592 kts 97°
2026-04-26 19:58 29.96779 -83.98365 34970 ft 594 kts 123°
2026-04-26 19:58 29.94169 -83.94743 35005 ft 594 kts 135°
2026-04-26 19:58 29.91256 -83.91345 34987 ft 594 kts 134°
2026-04-26 19:59 29.85664 -83.84322 34947 ft 594 kts 133°
2026-04-26 19:59 29.80009 -83.77332 34934 ft 594 kts 133°
2026-04-26 20:00 29.74410 -83.70385 34937 ft 594 kts 133°
2026-04-26 20:00 29.68772 -83.63413 34937 ft 595 kts 134°
2026-04-26 20:01 29.63192 -83.56523 34933 ft 589 kts 134°
2026-04-26 20:01 29.57596 -83.49625 34937 ft 589 kts 134°
2026-04-26 20:02 29.52034 -83.42784 34939 ft 589 kts 134°
2026-04-26 20:02 29.47369 -83.37053 34937 ft 589 kts 134°
2026-04-26 20:03 29.40809 -83.29008 34937 ft 589 kts 134°
2026-04-26 20:03 29.35248 -83.22202 34931 ft 586 kts 134°
2026-04-26 20:04 29.29662 -83.15378 34935 ft 587 kts 134°
2026-04-26 20:04 29.24054 -83.08538 34937 ft 587 kts 134°
2026-04-26 20:05 29.18473 -83.01743 34938 ft 587 kts 134°
2026-04-26 20:05 29.12889 -82.94954 34937 ft 587 kts 134°
2026-04-26 20:06 29.07273 -82.88140 34939 ft 587 kts 134°
2026-04-26 20:06 29.01715 -82.81408 34943 ft 584 kts 134°
2026-04-26 20:07 28.96129 -82.74652 34953 ft 585 kts 134°
2026-04-26 20:07 28.90523 -82.67884 34961 ft 586 kts 134°
2026-04-26 20:08 28.84951 -82.61168 34963 ft 586 kts 134°
2026-04-26 20:08 28.79316 -82.54388 34941 ft 586 kts 134°
2026-04-26 20:09 28.73728 -82.47674 34930 ft 582 kts 134°
2026-04-26 20:09 28.68138 -82.40971 34867 ft 582 kts 134°
2026-04-26 20:10 28.65354 -82.37637 34169 ft 575 kts 134°
2026-04-26 20:10 28.62684 -82.34439 33392 ft 550 kts 135°
2026-04-26 20:10 28.60087 -82.31333 32617 ft 529 kts 135°
2026-04-26 20:10 28.57588 -82.28349 31850 ft 512 kts 135°
2026-04-26 20:11 28.55163 -82.25453 31106 ft 496 kts 135°
2026-04-26 20:11 28.52838 -82.22678 30390 ft 483 kts 135°
2026-04-26 20:11 28.50545 -82.19944 29618 ft 470 kts 135°
2026-04-26 20:12 28.46131 -82.14685 28004 ft 448 kts 135°
2026-04-26 20:12 28.44000 -82.12150 27235 ft 438 kts 135°
2026-04-26 20:12 28.41939 -82.09698 26485 ft 429 kts 135°
2026-04-26 20:12 28.39886 -82.07258 25758 ft 421 kts 135°
2026-04-26 20:13 28.37982 -82.04990 25031 ft 362 kts 135°
2026-04-26 20:13 28.36202 -82.02880 24323 ft 375 kts 135°
2026-04-26 20:13 28.34404 -82.00753 23648 ft 371 kts 135°
2026-04-26 20:13 28.32625 -81.98642 22877 ft 368 kts 136°
2026-04-26 20:14 28.30536 -81.97076 20783 ft 361 kts 169°
2026-04-26 20:14 28.28314 -81.97263 15290 ft 320 kts 218°
2026-04-26 20:14 28.27040 -81.99308 10224 ft 325 kts 262°
2026-04-26 20:14 28.27505 -82.01608 7296 ft 284 kts 314°
2026-04-26 20:15 28.29139 -82.02084 6230 ft 266 kts 28°
2026-04-26 20:15 28.30174 -82.00369 6203 ft 276 kts 72°
2026-04-26 20:15 28.30698 -81.98278 6169 ft 276 kts 76°
2026-04-26 20:15 28.30809 -81.96074 5431 ft 287 kts 102°
2026-04-26 20:16 28.29778 -81.94057 3142 ft 308 kts 148°
2026-04-26 20:16 28.27908 -81.93067 2690 ft 286 kts 150°
2026-04-26 20:16 28.26439 -81.91725 3054 ft 266 kts 138°
2026-04-26 20:16 28.25086 -81.90273 3277 ft 269 kts 137°
2026-04-26 20:17 28.23808 -81.88778 3472 ft 268 kts 134°
2026-04-26 20:17 28.22570 -81.87199 3713 ft 269 kts 133°
2026-04-26 20:17 28.21316 -81.85655 3297 ft 258 kts 137°
2026-04-26 20:17 28.20482 -81.84746 3171 ft 243 kts 139°
2026-04-26 20:18 28.18790 -81.83021 3054 ft 245 kts 140°
2026-04-26 20:18 28.17432 -81.81917 3041 ft 244 kts 155°
2026-04-26 20:18 28.15824 -81.81503 2867 ft 237 kts 189°
2026-04-26 20:18 28.14251 -81.81892 2728 ft 231 kts 204°
2026-04-26 20:19 28.12831 -81.82702 2604 ft 227 kts 225°
2026-04-26 20:19 28.11784 -81.84015 2589 ft 219 kts 236°
2026-04-26 20:19 28.10965 -81.85446 2556 ft 219 kts 244°
2026-04-26 20:19 28.10343 -81.86893 2480 ft 187 kts 249°
2026-04-26 20:20 28.09872 -81.88180 2440 ft 182 kts 249°
2026-04-26 20:20 28.09399 -81.89472 2456 ft 172 kts 249°
2026-04-26 20:20 28.08909 -81.90730 2457 ft 180 kts 248°
2026-04-26 20:20 28.08311 -81.92000 2510 ft 182 kts 238°
2026-04-26 20:21 28.07561 -81.93079 2520 ft 176 kts 233°
2026-04-26 20:21 28.06962 -81.94301 2225 ft 180 kts 275°
2026-04-26 20:21 28.06991 -81.95678 2090 ft 177 kts 263°
2026-04-26 20:21 28.06828 -81.97057 1917 ft 175 kts 264°
2026-04-26 20:22 28.06674 -81.98414 2015 ft 171 kts 262°
2026-04-26 20:22 28.06439 -81.99758 2237 ft 180 kts 246°
2026-04-26 20:22 28.05738 -82.00930 2288 ft 183 kts 235°
2026-04-26 20:22 28.04909 -82.02051 2514 ft 185 kts 232°
2026-04-26 20:23 28.04083 -82.03147 2737 ft 185 kts 236°
2026-04-26 20:23 28.03350 -82.04333 2867 ft 179 kts 238°
2026-04-26 20:23 28.02953 -82.05168 2632 ft 184 kts 246°
2026-04-26 20:23 28.02096 -82.06238 2077 ft 191 kts 201°
2026-04-26 20:24 28.00790 -82.06331 1919 ft 193 kts 169°
2026-04-26 20:24 27.99548 -82.05702 2021 ft 201 kts 140°
2026-04-26 20:24 27.98867 -82.04366 1477 ft 201 kts 98°
2026-04-26 20:24 27.98103 -82.03164 1222 ft 194 kts 162°
2026-04-26 20:25 27.96794 -82.02789 1212 ft 188 kts 175°
2026-04-26 20:25 27.95998 -82.02654 2117 ft 178 kts 178°
2026-04-26 20:25 27.94214 -82.02389 2791 ft 196 kts 177°
2026-04-26 20:25 27.92877 -82.02269 2784 ft 198 kts 173°
2026-04-26 20:26 27.91542 -82.01934 2734 ft 197 kts 172°
2026-04-26 20:26 27.90252 -82.02081 2402 ft 185 kts 233°
2026-04-26 20:26 27.89875 -82.03362 2721 ft 177 kts 268°
2026-04-26 20:26 27.90077 -82.04745 3027 ft 182 kts 296°
2026-04-26 20:27 27.90874 -82.05808 2825 ft 179 kts 324°
2026-04-26 20:27 27.92084 -82.06329 2628 ft 188 kts 349°
2026-04-26 20:27 27.93392 -82.06421 2270 ft 191 kts 355°
2026-04-26 20:27 27.94698 -82.06473 2261 ft 186 kts 335°
2026-04-26 20:28 27.95928 -82.06812 2220 ft 189 kts
2026-04-26 20:28 27.96982 -82.05990 2147 ft 203 kts 75°
2026-04-26 20:28 27.97043 -82.04531 2918 ft 202 kts 95°
2026-04-26 20:28 27.96863 -82.02927 2894 ft 203 kts 99°
2026-04-26 20:29 27.96693 -82.01323 2648 ft 209 kts 95°
2026-04-26 20:29 27.96622 -81.99745 2484 ft 203 kts 92°
2026-04-26 20:29 27.96552 -81.98127 2376 ft 206 kts 87°
2026-04-26 20:29 27.96565 -81.96506 2545 ft 208 kts 89°
2026-04-26 20:30 27.96560 -81.94914 2660 ft 198 kts 89°
2026-04-26 20:30 27.97017 -81.93477 2546 ft 198 kts 31°
2026-04-26 20:30 27.98248 -81.93016 2365 ft 187 kts 339°
2026-04-26 20:30 27.99019 -81.93965 2103 ft 173 kts 269°
2026-04-26 20:31 27.98875 -81.95332 1565 ft 173 kts 273°
2026-04-26 20:31 27.98903 -81.96606 1189 ft 159 kts 271°
2026-04-26 20:31 27.98910 -81.97903 915 ft 167 kts 270°
2026-04-26 20:31 27.98915 -81.99136 590 ft 148 kts 271°
2026-04-26 20:32 27.98919 -82.00357 314 ft 160 kts 270°
2026-04-26 20:32 27.98925 -82.01653 392 ft 218 kts 270°
2026-04-26 20:32 27.98894 -82.03668 1088 ft 279 kts 269°
2026-04-26 20:32 27.98455 -82.05466 2414 ft 190 kts 202°
2026-04-26 20:33 27.97234 -82.05727 2832 ft 182 kts 169°
2026-04-26 20:33 27.96347 -82.04774 2569 ft 185 kts 99°
2026-04-26 20:33 27.96181 -82.03264 2610 ft 206 kts 92°
2026-04-26 20:33 27.96131 -82.01541 2676 ft 231 kts 89°
2026-04-26 20:34 27.96164 -81.99617 2817 ft 255 kts 87°
2026-04-26 20:34 27.96277 -81.97645 2871 ft 251 kts 71°
2026-04-26 20:34 27.97239 -81.96469 2777 ft 177 kts 352°
2026-04-26 20:34 27.98177 -81.96932 2040 ft 141 kts 310°
2026-04-26 20:35 27.98751 -81.97880 1131 ft 174 kts 289°
2026-04-26 20:35 27.98920 -81.99301 642 ft 177 kts 271°
2026-04-26 20:35 27.98932 -82.00582 228 ft 149 kts 269°
2026-04-26 20:35 27.98931 -82.01539 142 ft 89 kts 270°
2026-04-26 20:36 27.98924 -82.02066 139 ft 53 kts 270°
2026-04-26 20:36 27.98886 -82.02298 139 ft 19 kts 191°
2026-04-26 20:36 27.98817 -82.02297 137 ft 3 kts 178°
2026-04-26 20:36 27.98814 -82.02297 137 ft 0 kts 178°
2026-04-26 20:37 27.98813 -82.02297 137 ft 1 kts 178°
2026-04-26 20:37 27.98803 -82.02296 137 ft 0 kts 178°
2026-04-26 20:37 27.98801 -82.02296 137 ft 0 kts 177°
2026-04-26 20:37 27.98800 -82.02296 137 ft 0 kts 177°
2026-04-26 20:38 27.98786 -82.02296 137 ft 6 kts 179°
2026-04-26 20:38 27.98730 -82.02274 137 ft 11 kts 108°
2026-04-26 20:38 27.98734 -82.02173 141 ft 14 kts 89°
2026-04-26 20:38 27.98731 -82.02051 143 ft 17 kts 92°
2026-04-26 20:39 27.98733 -82.01917 143 ft 15 kts 90°
2026-04-26 20:39 27.98728 -82.01829 144 ft 8 kts 118°
2026-04-26 20:39 27.98681 -82.01837 145 ft 8 kts 219°
2026-04-26 20:39 27.98639 -82.01883 146 ft 9 kts 225°
2026-04-26 20:40 27.98593 -82.01938 146 ft 11 kts 224°
2026-04-26 20:40 27.98531 -82.02005 145 ft 14 kts 225°
2026-04-26 20:40 27.98457 -82.02086 144 ft 14 kts 224°
2026-04-26 20:40 27.98397 -82.02090 146 ft 10 kts 134°
2026-04-26 20:41 27.98366 -82.02027 147 ft 10 kts 78°
2026-04-26 20:41 27.98412 -82.01955 147 ft 13 kts 44°
2026-04-26 20:41 27.98480 -82.01886 149 ft 14 kts 42°
2026-04-26 20:41 27.98554 -82.01807 149 ft 16 kts 46°
2026-04-26 20:42 27.98629 -82.01718 148 ft 10 kts 50°
2026-04-26 20:42 27.98658 -82.01677 148 ft 7 kts 51°
2026-04-26 20:42 27.98696 -82.01632 148 ft 9 kts 42°
2026-04-26 20:42 27.98738 -82.01587 147 ft 8 kts 43°
2026-04-26 20:43 27.98774 -82.01529 146 ft 7 kts 56°
2026-04-26 20:43 27.98788 -82.01526 146 ft 0 kts 314°
2026-04-26 21:42 27.98791 -82.01528 146 ft 2 kts 321°
2026-04-26 21:42 27.98816 -82.01512 145 ft 6 kts 46°
2026-04-26 21:42 27.98820 -82.01508 144 ft 0 kts 46°
2026-04-26 21:43 27.98821 -82.01508 144 ft 0 kts 46°
2026-04-26 21:45 27.98821 -82.01507 144 ft 1 kts 46°
2026-04-26 21:45 27.98849 -82.01475 143 ft 12 kts 44°
2026-04-26 21:45 27.98913 -82.01406 143 ft 10 kts 31°
2026-04-26 21:46 27.98930 -82.01508 141 ft 72 kts 269°
2026-04-26 21:46 27.98926 -82.03034 394 ft 239 kts 270°
2026-04-26 21:46 27.98937 -82.04659 2176 ft 211 kts 269°
2026-04-26 21:46 27.98218 -82.05996 2926 ft 212 kts 192°
2026-04-26 21:47 27.96972 -82.05396 2791 ft 201 kts 122°
2026-04-26 21:47 27.96685 -82.03953 2454 ft 185 kts 83°
2026-04-26 21:47 27.96748 -82.02405 2479 ft 229 kts 89°
2026-04-26 21:47 27.96753 -82.00533 2614 ft 242 kts 87°
2026-04-26 21:48 27.96731 -81.98597 2672 ft 246 kts 111°
2026-04-26 21:48 27.95617 -81.97990 2696 ft 187 kts 243°
2026-04-26 21:48 27.95995 -81.99205 2681 ft 233 kts 352°
2026-04-26 21:48 27.97205 -81.98033 3428 ft 279 kts 95°
2026-04-26 21:49 27.95832 -81.96756 4080 ft 321 kts 191°
2026-04-26 21:49 27.95757 -81.98673 2999 ft 384 kts 328°
2026-04-26 21:49 27.97451 -81.97951 4033 ft 287 kts 133°
2026-04-26 21:49 27.96676 -81.98064 2801 ft 191 kts 269°
2026-04-26 21:50 27.96861 -81.99281 3103 ft 116 kts 26°
2026-04-26 21:50 27.97310 -81.98897 2608 ft 164 kts 101°
2026-04-26 21:50 27.95819 -81.98041 2791 ft 257 kts 244°
2026-04-26 21:50 27.96483 -81.99238 2500 ft 235 kts 38°
2026-04-26 21:51 27.96296 -81.98168 1394 ft 166 kts 202°
2026-04-26 21:51 27.95195 -81.97268 1960 ft 315 kts 63°
2026-04-26 21:51 27.96784 -81.96315 2164 ft 272 kts 336°
2026-04-26 21:51 27.98318 -81.97135 1634 ft 212 kts 328°
2026-04-26 21:52 27.98949 -81.98314 1031 ft 173 kts 272°
2026-04-26 21:52 27.98938 -81.99812 539 ft 215 kts 270°
2026-04-26 21:52 27.98929 -82.01102 252 ft 308 kts 270°
2026-04-26 21:52 27.97359 -82.02045 2438 ft 227 kts 79°
2026-04-26 21:53 27.97348 -82.00331 2527 ft 206 kts 94°
2026-04-26 21:53 27.97243 -81.98688 2449 ft 219 kts 93°
2026-04-26 21:53 27.97169 -81.97498 2463 ft 235 kts 89°
2026-04-26 21:53 27.97862 -81.96140 2170 ft 195 kts 334°
2026-04-26 21:54 27.98791 -81.97227 1368 ft 203 kts 292°
2026-04-26 21:54 27.98933 -81.99109 587 ft 355 kts 270°
2026-04-26 21:54 27.98870 -82.03288 443 ft 576 kts 253°
2026-04-26 21:54 27.97001 -82.02774 3310 ft 380 kts 95°
2026-04-26 21:55 27.96939 -82.00072 2724 ft 289 kts 88°
2026-04-26 21:55 27.97035 -81.97959 1933 ft 257 kts 68°
2026-04-26 21:55 27.98145 -81.97725 1639 ft 236 kts 320°
2026-04-26 21:55 27.98958 -81.99270 858 ft 249 kts 271°
2026-04-26 21:56 27.98932 -82.01336 353 ft 304 kts 269°
2026-04-26 21:56 27.98812 -82.02537 4757 ft 149 kts 287°
2026-04-26 21:56 27.99044 -82.03246 3422 ft 54 kts 56°
2026-04-26 21:56 27.98996 -82.02763 655 ft 187 kts 207°
2026-04-26 21:57 27.97911 -82.03650 1244 ft 220 kts 146°
2026-04-26 21:57 27.97220 -82.02003 2958 ft 269 kts 88°
2026-04-26 21:57 27.97235 -81.99896 3025 ft 257 kts 94°
2026-04-26 21:57 27.97864 -81.98579 2172 ft 229 kts 354°
2026-04-26 21:58 27.98963 -81.99520 1027 ft 192 kts 272°
2026-04-26 21:58 27.98922 -82.00903 192 ft 154 kts 268°
2026-04-26 21:58 27.98918 -82.01840 144 ft 92 kts 271°
2026-04-26 21:58 27.98897 -82.02295 140 ft 20 kts 189°
2026-04-26 21:59 27.98792 -82.02296 137 ft 9 kts 177°
2026-04-26 21:59 27.98731 -82.02270 137 ft 12 kts 101°
2026-04-26 21:59 27.98732 -82.02124 142 ft 25 kts 90°
2026-04-26 21:59 27.98733 -82.01877 143 ft 35 kts 91°
2026-04-26 22:00 27.98733 -82.01642 147 ft 19 kts 80°
2026-04-26 22:00 27.98788 -82.01535 146 ft 3 kts 140°
2026-04-26 22:00 27.98779 -82.01521 146 ft 1 kts 61°
2026-04-26 22:00 27.98788 -82.01522 146 ft 0 kts 316°
2026-04-26 22:01 27.98788 -82.01523 146 ft 0 kts 314°